RH
63 65 64 59 54 48 45 42 39 37 35 35 34 33 35 36 38 41 40 37 37 36 32 31 31 31 34 34 35 38 41 43 40 37 36 35 35 35 34 31 29 27 25 24 21 18 16 15 15 16 16 15 12 8 10 15 17 14 11 8 6 5 5 5 5 5 6 7 6 6 5 4 4 4 4 4 4 5 6 7 8 8 8 8 8 9 9 10 10 10 10 9 9 9 9 9 9
61 58 53 47 42 38 35 32 30 28 26 25 25 26 27 27 31 32 32 31 30 30 29 29 29 28 30 32 32 32 34 37 39 39 37 37 38 40 40 38 34 31 29 27 27 23 18 16 15 15 16 16 15 12 8 11 16 16 13 11 8 6 5 5 5 6 7 8 8 7 6 5 4 4 4 4 4 5 6 7 7 7 8 8 8 9 10 10 10 10 10 10 10 10 9 10 9
47 42 38 34 32 28 25 23 21 19 17 16 15 16 16 16 18 19 20 20 19 21 21 21 21 21 23 26 28 29 29 30 33 35 35 35 37 38 38 41 40 38 34 31 29 28 23 19 16 15 16 16 16 16 12 9 12 17 16 13 10 7 6 5 5 5 7 8 8 8 7 6 5 4 4 4 4 5 6 7 7 7 8 8 8 9 9 10 11 10 11 11 10 10 10 10 9
33 30 28 25 22 20 17 16 14 12 10 9 8 8 8 8 8 9 10 10 9 10 10 11 11 11 13 15 17 19 21 22 25 28 29 29 30 33 36 38 40 40 40 38 34 30 27 24 20 16 15 16 16 17 16 12 9 14 17 16 12 10 7 6 6 5 6 7 8 8 8 7 6 5 5 5 4 4 5 6 7 7 8 8 8 9 9 10 11 11 11 11 11 11 10 10 9
22 20 18 15 14 12 10 9 7 6 5 4 4 4 4 4 4 4 3 3 3 3 3 4 4 4 4 5 6 7 8 9 11 14 16 16 17 22 26 29 34 37 38 40 41 37 32 28 24 20 16 15 16 17 18 16 12 10 14 18 15 12 9 7 6 6 6 6 8 9 9 8 7 6 5 5 4 4 5 6 7 7 8 9 9 8 9 10 10 11 11 11 11 11 10 10 9
12 11 10 8 7 6 5 4 3 2 2 2 2 1 2 1 1 1 1 1 1 1 1 1 1 1 1 1 1 1 2 1 2 3 3 4 4 6 8 13 18 25 29 33 40 43 40 35 30 25 19 17 16 16 17 18 17 12 10 15 18 15 11 9 7 6 6 6 6 8 9 9 8 7 6 6 5 4 4 6 6 7 8 8 9 9 9 10 10 10 11 11 11 11 11 10 9
6 5 4 4 3 2 2 1 1 1 1 1 1 1 1 1 1 1 1 1 1 1 1 1 1 1 1 1 1 1 1 1 1 1 1 1 1 1 1 2 3 7 13 18 26 35 41 41 38 33 26 21 18 16 16 17 19 17 12 10 16 18 14 10 9 7 6 6 6 7 8 9 9 8 7 6 6 5 4 5 6 7 8 8 8 9 9 9 10 10 10 11 11 11 10 10 9
2 2 1 1 1 1 1 1 1 1 1 1 1 1 1 1 2 2 2 1 1 1 1 1 1 1 1 1 1 1 1 1 1 1 1 1 1 1 0 0 1 1 2 5 10 18 28 36 41 40 35 27 22 18 16 16 17 20 17 12 11 16 19 14 10 9 8 7 6 6 7 9 10 9 8 7 6 6 5 5 6 7 7 8 8 9 9 9 9 10 10 10 11 11 10 10 9
1 1 0 1 1 1 1 1 1 1 1 1 1 2 2 2 2 2 2 2 2 2 2 2 1 1 1 1 1 1 1 1 1 1 1 1 1 1 1 1 0 0 1 1 1 4 10 20 31 38 41 36 28 22 18 15 15 18 20 17 12 11 17 19 14 10 8 8 7 7 7 7 9 10 9 9 8 6 6 6 6 7 7 8 8 9 9 9 10 10 10 10 10 10 10 10 9
1 1 1 1 1 1 1 1 2 2 2 2 2 2 2 2 2 2 2 2 2 2 2 2 2 2 2 2 1 2 1 1 1 1 1 1 1 1 1 1 1 1 1 1 1 1 1 5 13 24 34 38 36 30 23 18 15 15 18 21 17 11 11 17 20 14 10 8 8 8 7 7 8 9 10 10 9 8 7 7 7 7 8 8 8 9 9 9 10 10 10 10 10 10 10 10 9
1 1 1 1 2 2 2 2 2 2 3 3 3 3 3 3 3 3 3 3 3 3 3 3 2 2 2 2 2 2 2 2 1 1 1 1 1 1 1 1 1 0 1 2 1 1 1 1 2 9 19 30 37 38 31 24 19 16 16 19 22 17 11 12 19 21 15 9 9 9 8 8 8 8 10 10 10 9 8 8 8 7 8 8 8 9 9 9 9 10 10 10 10 10 9 9 9
2 2 2 2 3 3 3 3 4 4 4 4 4 4 4 4 4 3 3 4 3 3 3 3 3 3 3 2 3 2 2 2 2 2 1 1 1 1 1 1 1 4 5 5 3 4 3 1 0 1 6 16 27 38 40 33 25 19 17 16 20 23 17 10 12 20 21 15 9 8 9 8 8 9 9 10 10 10 10 9 8 8 8 8 8 9 9 9 10 9 10 10 10 10 9 9 9
3 3 4 4 4 4 5 5 6 6 6 6 5 5 5 5 5 4 4 4 4 4 4 4 3 3 3 3 3 2 3 2 2 2 1 2 1 1 1 1 3 6 7 5 4 5 5 4 3 1 1 6 14 26 38 42 35 25 20 16 17 21 23 17 10 13 21 23 16 9 9 9 9 9 9 9 10 10 10 10 9 9 9 9 9 9 9 9 10 9 9 10 9 9 9 9 9
4 5 5 5 6 6 6 7 7 7 7 7 6 6 6 6 6 5 5 5 5 5 5 5 4 4 4 3 3 3 3 2 3 2 2 2 1 2 1 1 2 2 3 1 1 3 5 4 3 3 2 1 7 16 27 39 44 37 26 19 17 17 22 23 16 10 15 24 25 17 10 9 10 9 9 9 9 10 10 10 10 10 9 10 9 9 10 9 9 9 9 9 9 9 9 9 9
7 7 7 7 8 8 8 8 8 8 8 8 8 7 7 7 6 7 6 6 6 6 6 5 5 5 4 4 4 4 3 3 3 2 2 2 2 2 1 2 0 1 1 -0 8 11 8 8 6 6 6 3 2 9 20 32 43 46 38 25 19 17 18 23 24 15 10 17 26 27 19 11 10 10 9 9 9 10 10 10 10 10 10 9 10 9 9 9 9 9 9 8 9 9 9 10 10
9 9 9 9 9 9 9 9 9 9 9 9 8 8 8 8 8 8 8 8 7 7 7 6 6 5 5 5 4 4 4 3 3 3 3 2 2 2 1 2 -0 3 -0 1 13 13 16 21 13 7 8 7 3 4 14 27 36 45 49 37 24 19 17 19 25 24 14 11 18 28 31 22 14 11 10 10 9 9 9 10 10 10 10 10 9 9 9 9 9 8 9 9 9 10 11 11 12
10 10 10 10 10 10 10 10 10 10 10 10 10 10 9 9 9 9 9 9 9 8 7 7 6 6 5 5 5 5 4 4 4 3 3 2 3 2 2 2 0 2 -1 2 4 9 36 42 25 21 20 15 7 3 9 23 34 41 51 49 34 22 18 17 20 27 23 13 12 19 29 33 27 18 13 12 11 10 9 9 10 10 9 10 10 9 9 8 9 9 9 10 11 12 13 14 16
11 11 11 11 11 11 11 11 11 11 10 10 10 11 10 10 10 10 10 9 9 9 8 8 7 7 6 6 5 5 5 4 4 3 3 2 3 2 2 2 1 2 -0 3 -1 13 50 61 57 50 40 34 21 10 5 16 34 42 50 54 48 31 20 19 17 22 29 22 13 12 21 32 37 32 25 19 15 13 11 10 9 10 9 10 10 9 10 10 10 10 10 12 13 15 16 18 20
12 12 12 12 12 11 11 11 11 11 11 10 10 11 11 11 11 11 11 10 9 9 9 8 8 8 7 7 6 6 6 5 4 4 3 3 3 2 2 2 1 2 0 2 -1 8 27 48 80 77 59 60 51 37 14 5 21 39 53 57 57 46 26 21 19 18 25 31 22 12 15 25 35 41 39 31 25 21 17 16 12 10 9 8 10 10 11 11 11 12 13 15 16 18 19 22 23
14 13 13 13 13 12 12 11 12 12 11 11 11 11 11 10 11 11 11 12 11 9 10 9 9 9 8 8 7 6 6 5 5 4 4 3 3 2 2 2 2 2 1 1 -0 2 1 11 55 87 93 88 79 74 45 13 8 21 47 59 61 58 40 24 21 20 19 29 33 21 13 17 27 38 45 43 38 34 29 27 22 18 14 10 10 11 11 11 12 14 17 19 20 21 23 24 23
15 14 14 14 13 12 13 12 12 13 13 13 12 12 11 10 10 10 11 13 13 10 9 9 9 9 9 8 7 7 6 6 5 4 4 3 3 3 2 2 2 2 1 2 0 1 2 -3 12 52 92 103 93 91 73 42 18 9 28 54 65 63 54 36 22 22 18 21 33 33 20 12 18 27 37 46 49 46 43 41 36 31 25 18 15 15 13 13 15 17 20 22 22 24 25 25 22
16 16 15 15 14 13 13 13 13 14 14 14 14 13 12 10 10 10 11 12 13 11 9 8 8 9 8 8 8 7 7 6 6 4 4 3 3 3 2 3 1 2 1 1 2 -1 2 1 -1 9 46 89 100 95 89 72 46 22 18 41 65 67 61 50 30 22 21 18 25 38 34 17 12 16 23 37 50 53 53 52 48 43 36 27 23 22 18 16 17 18 21 24 25 27 28 26 22
18 18 17 16 16 14 14 14 14 15 15 15 15 14 13 11 12 11 11 12 12 10 9 8 8 8 7 7 7 7 7 6 6 5 4 3 3 3 3 3 1 2 1 0 2 1 0 -0 2 -2 11 63 95 98 98 86 69 46 27 35 57 70 66 58 42 26 22 20 19 33 43 31 16 13 14 21 35 46 54 58 56 53 47 38 31 27 24 22 21 22 25 28 30 31 29 25 21
19 20 19 18 18 16 16 15 15 16 16 17 16 16 13 12 14 14 13 12 12 11 10 9 8 8 7 7 6 6 7 6 6 5 4 4 3 3 2 3 2 2 1 1 0 0 2 -2 2 -1 2 54 91 98 102 92 86 70 46 41 50 67 71 63 52 33 24 22 20 26 41 44 29 16 13 13 17 26 37 50 58 60 57 50 42 36 32 31 31 33 34 34 36 34 28 24 20
21 21 21 20 19 18 18 17 17 18 19 19 18 18 15 12 13 15 14 13 13 12 11 9 8 8 6 7 6 7 7 6 6 4 5 4 3 4 2 3 2 2 1 1 1 -1 2 -1 2 -1 0 55 88 90 106 98 93 90 69 57 56 67 73 68 60 43 29 23 23 23 31 47 44 27 17 14 12 13 18 29 44 58 63 61 55 49 44 42 43 44 44 41 39 32 26 22 19
24 23 23 22 21 21 20 20 19 20 22 21 21 20 17 14 14 15 15 14 15 13 12 10 8 8 7 7 7 7 7 6 6 4 5 4 3 3 2 3 0 2 1 -0 2 -1 2 -1 2 0 -4 49 82 76 99 101 93 99 88 76 71 74 78 73 64 52 38 26 24 25 27 43 54 44 28 18 15 12 12 14 23 38 53 65 67 63 57 53 52 50 49 44 36 28 23 20 18
25 25 25 23 23 24 23 23 23 23 24 23 24 24 19 16 14 14 16 16 17 15 13 10 9 8 7 8 7 7 7 7 6 5 5 3 4 3 2 4 0 2 1 0 2 -2 3 -1 -0 4 -8 37 82 73 87 100 95 99 94 90 83 78 82 80 70 59 46 31 25 26 28 38 51 55 43 29 20 15 13 12 13 18 31 50 62 65 62 57 52 47 44 38 30 23 21 19 18
26 26 27 26 26 28 27 27 26 26 26 25 26 26 23 18 14 15 18 18 18 16 14 11 10 9 7 8 7 8 8 7 7 5 5 4 4 4 2 3 1 2 0 -0 2 -2 2 -1 0 3 -5 45 95 87 88 96 97 98 95 99 93 78 78 85 80 65 53 40 29 27 29 33 42 52 53 44 32 22 16 14 13 12 15 24 34 41 44 42 38 34 33 29 24 21 19 19 18
27 27 29 29 29 30 30 30 29 28 29 28 27 28 26 21 15 15 17 20 20 18 15 12 10 9 8 8 7 8 8 7 7 5 5 4 4 4 3 2 1 1 1 0 1 0 0 -1 2 -3 9 74 106 93 94 95 96 99 96 98 93 82 78 85 86 72 59 47 34 30 30 32 35 42 51 53 46 35 26 19 15 13 13 14 16 19 21 23 23 23 23 22 20 19 18 18 16
28 29 31 31 31 32 32 31 30 30 30 30 28 28 30 25 18 17 18 19 21 19 16 13 11 9 8 7 7 8 8 7 7 6 5 4 4 4 3 2 2 0 0 1 -1 1 0 -1 3 -5 25 94 107 90 97 96 93 93 96 99 92 87 84 82 87 79 65 54 40 32 32 32 32 35 42 51 53 48 40 30 23 18 16 16 15 14 14 14 15 16 17 17 17 17 17 17 14
29 30 32 33 33 34 34 31 31 31 32 32 28 27 33 32 23 21 21 19 20 20 17 14 11 9 8 7 8 8 9 8 6 7 5 5 4 4 3 1 1 1 -0 1 -1 1 0 -0 3 1 36 95 103 92 99 98 92 86 93 104 98 93 90 84 87 82 69 59 48 36 33 32 32 32 34 41 49 53 51 45 36 29 26 24 21 19 16 14 14 14 14 14 15 15 16 16 15
31 31 32 34 33 34 35 33 33 33 33 33 28 25 33 38 30 24 23 21 21 21 18 15 11 10 8 7 9 8 9 9 7 7 5 5 5 3 3 1 1 1 -0 1 0 0 1 1 1 11 55 96 98 95 99 99 95 87 87 99 101 95 90 86 87 87 75 62 52 40 35 34 34 32 30 33 40 49 55 54 49 43 39 36 33 29 25 22 21 20 18 18 18 18 18 19 20
32 32 32 34 33 35 36 36 36 35 34 34 28 24 32 40 35 28 24 22 23 22 19 16 12 10 9 8 9 9 10 9 8 7 5 5 5 4 2 1 1 0 1 0 1 1 2 2 -2 24 81 102 94 97 100 99 97 93 88 88 99 100 92 87 85 89 81 63 52 45 40 38 36 32 29 28 32 42 53 56 54 51 49 46 44 41 37 34 32 31 29 27 26 26 26 26 28
33 31 32 33 34 35 37 38 38 36 34 34 29 24 31 40 38 34 29 24 24 22 19 17 14 11 9 9 9 10 10 9 9 7 6 5 4 5 1 1 1 -1 2 -1 2 3 2 7 -3 30 97 101 91 105 103 101 97 95 95 84 90 101 100 95 88 86 83 69 55 47 46 44 39 34 30 27 29 37 46 50 50 49 51 49 49 47 44 42 40 39 38 36 35 34 34 35 36
31 31 32 34 35 35 38 39 36 36 35 33 30 25 29 37 39 38 33 27 25 23 21 17 15 13 10 10 10 11 11 9 10 7 6 6 4 5 1 2 1 -0 3 -1 6 7 8 25 9 28 95 100 94 106 98 100 97 93 100 88 84 95 100 101 95 87 85 80 65 55 56 52 44 37 31 29 29 33 39 43 45 46 47 47 48 49 47 47 47 46 45 43 42 41 40 41 41
30 32 33 34 36 36 40 39 33 35 36 34 33 26 27 34 37 37 33 29 26 23 22 19 16 13 11 11 10 12 12 9 10 8 7 5 4 4 1 2 1 0 3 1 12 12 22 56 41 38 90 100 96 99 90 97 98 94 101 93 86 91 98 102 99 94 91 86 75 67 65 59 51 43 34 31 30 33 39 44 46 47 48 48 49 53 54 55 55 53 50 48 47 46 46 45 44
31 32 32 33 35 38 41 37 33 34 33 33 34 27 27 34 36 36 33 30 28 25 24 21 17 15 12 13 12 12 12 10 10 8 7 6 4 4 1 1 1 1 3 6 19 21 39 82 77 61 84 92 93 96 93 98 97 97 100 98 94 90 98 104 100 100 98 92 82 72 69 64 58 49 39 32 30 34 40 45 48 50 52 54 57 60 60 58 56 53 49 47 48 49 49 48 46
28 29 31 32 33 37 40 36 34 35 29 29 33 28 29 36 37 37 34 32 32 28 26 22 18 17 14 13 13 12 13 11 11 10 7 6 5 4 1 1 1 2 3 11 25 31 49 88 97 79 75 83 93 98 101 99 95 97 98 101 99 87 95 104 99 99 99 96 89 76 72 71 65 56 44 35 34 37 42 46 51 54 57 60 61 61 58 54 52 50 49 48 50 51 51 49 48
24 26 27 30 32 35 37 36 36 36 28 28 33 28 29 37 39 40 39 35 35 30 27 24 20 19 16 13 13 13 14 13 12 11 7 6 5 3 2 1 2 2 5 15 29 38 52 81 99 86 71 79 95 101 102 99 95 98 100 101 95 83 90 100 99 98 98 98 95 84 75 72 70 63 52 43 38 38 42 49 56 59 58 59 60 58 54 51 49 51 54 53 51 52 52 50 49
20 23 24 27 31 32 33 35 36 35 29 28 32 26 26 36 39 41 42 37 36 33 28 27 23 20 17 14 13 13 15 14 13 11 8 6 5 3 2 1 2 3 7 17 28 40 52 71 91 87 75 82 94 99 100 98 98 99 101 101 94 87 89 95 98 99 99 101 98 92 83 74 70 66 61 53 45 42 44 50 57 60 58 58 59 56 52 50 52 56 58 56 54 52 52 53 51
17 19 21 24 29 29 29 33 34 34 31 30 31 23 21 32 38 41 41 36 36 35 30 29 25 21 18 15 13 13 16 15 13 12 9 7 5 4 2 1 3 3 8 17 24 36 50 66 86 84 76 83 89 96 100 97 99 100 100 101 98 93 88 91 99 99 100 102 97 92 88 81 73 69 68 63 54 48 45 49 54 55 56 56 56 56 56 56 55 56 57 58 59 56 53 53 52
16 17 20 24 26 27 27 30 31 32 32 32 33 24 16 26 37 42 42 38 37 36 32 31 26 22 19 16 14 13 16 15 14 13 10 8 5 4 3 0 3 3 7 16 20 29 43 61 80 75 67 77 84 94 102 98 99 102 99 99 100 97 92 93 97 98 100 101 97 94 93 89 81 73 73 75 70 60 52 50 51 51 50 50 53 55 55 55 53 53 58 62 62 61 57 52 52
17 17 20 22 23 25 27 28 30 29 29 31 33 28 18 20 33 43 44 41 39 35 33 31 27 24 20 17 15 13 16 16 15 14 11 9 6 5 4 0 2 3 6 13 17 23 35 52 68 64 56 66 78 92 102 99 99 102 97 98 101 99 98 96 93 95 100 99 98 98 98 97 90 81 80 84 86 84 77 64 53 49 45 47 61 70 62 57 57 54 56 61 62 61 58 55 56
18 18 21 22 23 24 25 26 28 27 27 26 29 32 24 18 28 42 44 42 41 36 34 32 28 26 22 18 16 14 16 16 15 15 13 10 7 5 4 1 2 3 5 11 13 16 27 43 55 53 46 50 65 85 100 101 99 99 96 98 103 101 98 98 96 96 98 97 97 98 99 100 97 90 86 85 85 91 94 86 71 58 51 54 68 83 82 73 67 59 52 53 55 57 58 60 63
20 21 22 23 24 24 24 26 27 27 24 21 28 35 29 19 26 41 44 43 44 39 35 34 31 28 24 20 18 15 15 17 16 16 14 11 8 5 5 2 1 3 4 7 10 11 17 32 42 42 37 38 49 67 88 101 100 98 98 99 103 101 97 97 98 100 99 97 98 99 99 99 98 97 96 92 86 86 89 94 93 79 72 74 70 73 83 83 76 68 59 53 51 56 61 62 65
22 23 24 25 26 25 26 26 27 28 22 20 29 37 33 23 25 40 46 43 43 40 38 37 34 30 26 22 20 16 16 16 16 17 16 13 9 6 5 3 2 2 3 4 7 8 10 18 27 30 30 34 43 54 73 92 98 98 100 101 102 100 97 97 98 100 101 99 97 98 99 99 100 101 100 97 95 92 91 96 101 94 90 91 82 71 72 79 84 82 75 64 54 54 56 58 64
23 24 25 26 26 26 28 27 28 29 23 23 30 35 36 27 23 37 46 42 43 43 41 40 36 32 28 24 21 18 16 15 17 17 16 15 12 7 5 5 3 1 2 4 4 5 6 8 14 20 25 34 44 51 61 76 85 90 93 96 98 98 100 101 99 98 98 98 96 96 98 98 99 100 96 96 99 99 97 99 101 100 99 98 97 89 77 75 89 97 92 80 66 60 58 57 62
22 23 23 25 26 26 27 27 28 29 26 28 31 35 38 30 26 39 42 40 45 45 42 41 37 33 30 25 22 19 16 15 16 17 17 16 14 10 6 5 5 2 1 3 3 4 4 4 6 11 19 29 38 45 53 62 70 75 76 79 85 90 96 99 98 98 99 99 98 98 99 98 98 100 95 94 100 100 99 100 99 99 101 100 99 99 91 86 93 102 99 92 85 80 77 70 62
20 21 21 23 24 25 27 27 29 29 29 32 34 38 37 27 30 42 41 40 45 43 41 41 38 34 31 27 23 20 17 15 15 17 17 17 15 12 9 5 5 4 2 2 2 3 3 3 3 5 10 19 27 37 45 51 56 58 58 59 64 71 80 85 87 91 95 98 99 99 101 101 100 100 98 97 100 101 100 101 100 98 100 101 99 98 97 96 98 100 98 97 98 95 93 88 75
22 20 22 23 24 25 26 28 30 32 35 38 41 41 33 24 30 41 42 43 44 41 41 41 38 36 32 28 25 21 18 15 15 16 16 17 17 15 11 8 5 5 4 2 2 2 2 3 3 2 4 8 15 26 35 39 42 43 42 43 45 50 58 65 70 75 80 83 85 89 94 99 98 95 98 100 99 100 101 99 99 99 99 100 100 99 99 98 98 99 95 94 98 100 98 95 87
39 32 30 29 29 31 33 37 41 42 44 43 42 38 28 24 33 40 42 42 42 41 39 38 38 37 34 30 26 22 19 17 15 15 16 16 17 17 14 11 7 5 5 4 2 2 2 2 3 2 2 3 7 13 18 22 26 29 31 31 32 35 39 45 51 57 63 65 65 69 77 86 89 86 88 92 93 94 97 99 99 99 99 100 100 100 100 99 99 100 97 93 96 101 100 96 93
69 61 53 46 46 49 52 55 55 54 52 43 36 31 25 27 35 42 44 40 40 43 40 39 39 37 35 32 27 23 21 19 17 16 15 15 16 17 17 15 11 7 6 5 4 3 1 1 2 2 2 2 3 4 7 10 14 17 22 24 24 25 27 30 35 40 46 50 50 50 56 64 69 70 70 72 76 77 79 88 96 100 100 100 100 100 100 100 100 101 99 95 93 99 100 97 96
85 78 72 69 71 72 71 69 64 62 55 39 30 28 27 29 33 43 48 41 39 43 40 39 39 37 36 33 29 26 23 21 20 17 16 15 16 17 17 17 15 11 7 6 5 5 3 2 1 1 1 2 2 2 4 6 7 9 12 15 16 17 18 19 22 26 31 35 37 35 36 41 46 49 48 48 52 55 57 64 76 88 96 98 98 101 100 99 100 100 99 97 94 96 97 96 97
79 75 77 84 84 79 77 73 66 64 56 39 31 29 29 29 32 44 52 45 41 42 39 37 38 38 37 33 31 28 25 24 22 18 17 16 16 17 18 17 17 16 12 8 6 6 6 4 3 2 1 1 1 1 2 3 4 4 5 6 7 8 9 10 12 15 18 21 24 22 20 22 25 28 29 30 32 35 38 42 48 61 77 84 85 90 96 99 100 101 100 98 98 98 96 95 97
72 73 78 83 80 75 77 75 68 65 58 43 33 30 29 29 35 50 56 47 41 39 37 37 38 39 37 35 34 30 27 27 23 19 18 17 18 18 19 19 18 18 16 12 9 7 6 6 5 4 3 2 2 1 1 2 2 2 2 2 3 3 3 4 5 6 8 10 11 11 10 9 11 14 16 17 18 19 22 25 28 34 46 55 57 62 75 86 93 99 101 100 100 99 96 95 97
79 79 80 80 79 78 79 79 74 68 61 49 37 30 26 26 36 54 59 49 42 40 39 38 38 39 38 37 37 32 29 29 24 20 18 18 19 18 18 20 19 19 19 16 13 10 8 7 6 6 6 4 3 3 2 2 1 1 1 1 1 1 1 1 2 2 3 4 4 3 3 3 4 6 7 8 9 10 12 13 15 17 22 27 31 36 46 60 73 82 88 92 97 97 94 96 100
92 90 88 85 85 86 84 81 76 71 63 51 40 31 25 24 34 52 61 54 47 43 40 40 40 41 41 40 40 36 33 31 26 21 20 20 20 19 18 19 19 19 20 18 17 14 12 9 8 7 7 6 6 5 4 4 3 2 2 2 1 1 1 1 1 1 1 1 2 1 1 1 2 2 2 3 4 5 6 6 7 9 10 12 15 19 24 35 48 57 64 72 81 87 91 93 96
100 97 92 89 91 91 87 78 71 69 63 53 48 37 25 22 26 43 60 58 50 43 39 42 45 44 44 43 41 40 36 33 29 23 23 23 21 20 19 18 19 19 19 19 19 17 15 13 11 9 8 8 7 7 7 6 6 5 5 4 4 3 3 3 2 2 2 2 2 1 1 1 1 1 1 1 1 1 2 2 3 3 5 6 7 9 12 19 29 36 42 48 55 67 80 88 92
Wind_Speed
31 31 31 30 29 29 28 28 27 25 23 20 19 21 24 26 24 24 28 29 29 30 31 30 29 29 29 29 28 28 28 28 29 29 29 26 23 22 22 23 23 22 22 22 21 19 18 18 19 21 22 22 21 20 18 18 19 20 21 23 24 24 25 25 25 25 24 24 24 24 24 24 24 23 22 21 20 20 21 22 22 21 20 19 18 17 16 14 13 11 9 8 7 6 5 4 3
30 30 29 29 28 28 26 27 26 23 22 18 18 22 24 25 24 26 27 29 30 30 31 30 30 30 30 30 30 30 30 30 30 30 31 30 27 26 26 26 25 25 24 24 24 23 21 20 20 21 22 23 24 23 22 21 21 21 22 24 25 26 26 26 27 26 26 25 25 25 26 26 25 25 23 22 22 22 24 24 23 22 21 20 19 18 16 15 14 12 10 9 8 7 6 6 5
29 28 28 28 27 27 26 27 25 23 23 19 19 23 25 25 25 26 27 29 29 29 31 30 30 30 29 29 30 31 31 30 30 31 32 32 31 31 30 29 29 29 28 27 27 26 25 24 22 22 23 24 25 25 25 24 23 23 24 25 26 27 27 28 28 28 27 26 25 25 26 27 27 26 25 24 23 24 25 25 24 23 22 21 19 18 17 16 15 13 12 11 10 9 9 8 7
29 28 29 28 28 28 27 27 26 25 24 22 23 25 27 27 28 28 28 28 28 30 32 30 31 30 29 30 31 31 31 31 31 31 32 32 32 32 32 33 33 32 31 30 29 29 28 27 26 25 24 25 26 27 27 27 26 25 25 26 27 28 29 29 29 29 29 28 27 26 26 27 27 28 27 26 25 25 26 27 26 25 23 22 20 19 19 17 16 15 14 13 13 12 11 10 9
29 29 29 30 30 29 29 28 28 27 25 27 26 27 30 28 27 25 23 23 23 26 27 26 27 27 27 27 28 29 29 29 30 31 31 31 32 32 32 34 35 35 35 34 33 32 32 31 29 28 27 26 27 28 28 29 29 28 27 28 28 29 31 31 31 31 30 30 29 27 26 27 28 28 28 28 27 27 27 27 27 26 25 23 21 20 20 19 18 17 16 16 15 14 12 12 11
30 30 30 30 31 30 30 28 27 26 26 27 23 23 24 19 15 13 13 14 15 16 15 16 16 17 18 18 19 22 22 23 25 26 26 26 27 28 29 31 34 37 37 37 36 36 36 35 33 32 31 29 28 29 30 31 31 31 30 29 29 30 32 33 33 32 32 31 31 29 28 27 28 29 29 29 28 28 28 28 28 27 26 24 23 22 21 20 19 19 18 18 17 16 15 14 13
31 30 30 30 29 27 25 22 21 21 21 19 14 12 11 8 8 9 10 13 13 13 12 12 12 13 13 13 15 16 16 17 18 19 21 22 22 23 23 26 29 33 37 39 40 39 39 39 38 36 34 33 32 31 31 32 33 33 33 32 31 31 33 34 35 34 34 33 32 32 30 29 28 28 29 30 30 29 29 28 29 28 27 26 24 23 22 21 21 20 20 20 19 18 17 15 15
27 26 24 22 19 18 15 14 14 14 13 11 9 8 8 9 10 10 10 12 13 13 12 12 13 15 14 14 16 16 16 17 17 17 18 20 22 23 23 24 26 28 32 37 40 42 42 41 42 41 38 36 35 35 33 33 34 35 35 35 34 33 34 35 36 36 36 35 35 34 32 31 30 29 29 30 31 30 30 29 30 29 28 27 26 25 24 23 22 22 22 21 21 20 19 17 16
16 15 14 13 12 13 12 12 11 11 11 9 8 9 11 12 12 12 11 12 13 13 14 14 15 17 16 17 18 18 18 19 20 20 19 20 22 24 25 26 27 28 29 32 37 40 43 44 44 44 44 40 38 38 37 35 35 36 37 37 37 36 35 36 37 38 38 37 37 36 35 33 32 31 30 30 31 31 30 30 30 30 29 28 28 27 26 25 24 23 23 23 22 21 20 19 18
12 12 12 12 12 12 11 10 10 10 10 10 11 12 13 13 13 14 14 14 14 15 16 16 17 18 18 19 20 20 20 21 22 23 22 23 23 24 25 27 29 30 31 32 35 38 41 43 45 46 47 46 42 41 41 39 37 38 39 39 40 39 38 37 38 39 40 39 39 38 37 36 34 33 32 32 32 31 31 31 31 30 30 30 29 29 27 26 26 25 24 24 23 23 22 20 19
12 11 12 12 11 11 11 11 11 12 12 12 13 14 14 15 15 15 16 16 16 16 17 19 19 19 20 22 22 22 22 23 24 24 25 25 25 26 27 28 29 31 32 33 35 38 40 42 44 47 49 50 48 45 44 43 41 40 40 41 42 42 41 40 39 39 40 41 41 41 39 38 37 35 35 35 33 32 32 32 32 32 31 31 31 30 29 28 27 26 25 25 25 24 23 22 20
12 12 12 12 12 12 12 12 13 13 14 14 15 15 16 17 17 17 18 18 18 19 19 21 21 21 22 24 24 24 24 24 25 26 26 26 26 28 30 31 31 30 30 32 34 37 40 43 45 47 49 52 53 51 48 46 45 44 42 42 43 44 44 43 41 41 41 41 42 43 42 41 40 38 37 37 36 34 34 33 33 33 33 32 33 32 31 30 29 28 27 26 26 25 24 23 21
13 13 13 13 13 13 14 14 14 15 15 16 17 17 17 18 19 19 20 20 20 21 21 22 22 22 23 24 26 26 26 27 27 27 28 28 28 30 33 34 32 30 30 30 32 35 39 43 46 49 51 52 54 55 53 50 48 47 45 44 44 45 46 46 44 43 42 42 43 44 44 43 42 41 40 39 38 37 36 36 35 35 34 34 34 33 32 31 30 29 28 28 27 26 25 24 22
14 14 14 15 14 14 14 14 15 15 15 16 17 17 18 18 19 19 20 21 21 21 23 23 23 23 24 25 26 27 28 28 28 29 29 30 30 32 34 36 34 33 33 32 33 35 37 41 46 50 53 54 55 56 57 55 52 50 49 47 45 46 47 48 47 46 44 43 43 44 45 45 44 43 43 42 40 39 38 37 37 36 35 35 35 34 33 33 32 31 30 29 28 27 26 25 23
15 15 15 15 14 14 14 14 14 15 15 16 17 17 18 18 18 19 19 21 22 21 23 24 24 24 25 26 27 28 29 30 30 30 30 31 31 31 33 36 36 34 35 35 35 36 38 40 45 49 54 57 58 58 58 59 57 54 52 50 48 47 48 49 50 49 46 45 44 44 45 45 46 45 44 44 43 42 41 39 39 38 37 36 36 35 34 34 33 32 31 29 29 28 27 26 24
16 15 15 15 14 14 14 15 15 16 16 16 17 17 17 17 18 19 19 21 22 22 23 25 24 25 26 27 28 29 29 30 31 31 32 32 32 33 33 35 37 36 36 36 36 39 39 41 45 49 54 57 60 61 60 61 60 58 55 53 51 49 49 50 51 51 49 48 46 45 45 46 46 45 44 44 44 44 42 42 41 40 39 38 38 37 36 35 34 33 32 30 29 29 27 26 25
16 15 15 14 14 15 15 15 16 17 16 16 16 16 17 17 17 19 20 21 22 23 23 25 25 25 26 28 29 30 30 31 32 32 33 33 34 35 34 35 37 37 37 37 38 38 39 42 45 48 52 58 62 64 63 63 63 61 59 57 55 52 51 51 51 53 52 50 48 47 46 46 45 44 44 44 45 44 44 43 43 42 41 40 39 38 37 36 36 34 33 32 30 29 28 26 25
16 15 15 15 15 15 15 16 17 17 17 16 16 17 17 18 18 19 20 21 22 23 24 24 26 26 27 29 30 31 31 32 32 33 34 35 36 36 36 36 36 38 39 40 40 37 37 40 43 47 51 57 61 65 66 66 65 63 62 60 58 56 53 52 52 52 54 52 50 49 47 46 45 44 44 45 44 43 43 44 44 43 42 41 40 39 39 38 37 35 34 33 31 29 28 26 25
17 17 16 16 16 17 17 18 18 18 18 17 17 17 18 19 19 20 21 22 23 23 25 25 27 28 29 30 32 33 33 33 33 34 35 37 38 38 38 37 37 39 40 41 41 40 38 36 41 50 56 59 61 64 68 69 68 66 64 62 61 59 57 54 53 52 53 54 52 50 48 46 45 45 45 45 44 43 42 43 43 43 42 42 41 40 40 38 37 36 35 33 31 29 27 26 25
18 18 18 17 18 18 18 19 19 19 18 18 18 18 19 20 20 21 21 23 24 25 26 27 28 29 30 32 34 35 35 34 35 35 36 37 39 40 40 40 39 39 41 43 43 43 42 36 38 47 53 61 62 61 65 70 71 70 67 64 63 61 59 56 54 53 53 54 54 51 49 48 46 45 46 45 44 43 42 42 41 41 41 41 40 39 39 37 36 35 34 32 30 29 28 27 25
19 19 19 19 19 20 19 19 20 20 19 19 20 20 21 22 22 22 22 22 25 26 27 28 29 30 31 32 34 36 36 36 36 37 38 38 40 41 42 42 42 42 42 43 45 46 45 41 37 42 45 53 61 61 61 68 71 73 72 67 64 63 61 59 56 54 53 53 55 53 51 50 48 46 46 45 44 43 42 42 41 40 39 39 39 38 37 36 35 35 33 31 29 29 29 28 26
20 20 20 20 21 21 21 21 21 21 21 21 21 22 23 24 24 24 23 23 26 27 28 29 30 31 32 33 34 35 36 37 38 38 39 39 40 42 43 43 44 44 44 44 46 48 49 46 41 44 48 46 54 62 61 66 71 73 75 70 66 64 62 60 58 56 54 53 54 54 53 51 50 48 46 45 44 44 43 42 42 41 40 39 38 36 36 35 35 34 32 31 30 30 29 29 27
22 21 21 22 22 23 22 22 23 22 23 23 23 24 25 25 25 25 25 25 27 28 29 30 31 33 34 34 35 35 36 37 38 39 40 40 42 43 44 45 46 46 47 47 48 50 53 52 47 47 57 52 47 59 64 65 72 73 74 72 67 65 63 61 59 57 55 53 53 54 55 53 51 50 48 46 44 44 43 43 42 42 41 39 38 36 35 35 35 34 33 32 32 31 31 30 28
23 22 23 23 23 24 24 24 25 24 24 25 25 25 27 27 26 26 27 26 28 30 30 31 32 34 36 36 37 37 37 37 38 40 41 42 43 44 45 46 48 48 50 51 51 54 55 57 54 48 59 63 46 52 63 64 68 71 72 72 70 66 63 62 59 57 56 54 53 54 55 54 53 51 49 48 45 45 43 43 43 42 42 40 39 37 36 36 35 34 34 34 33 33 33 32 29
24 24 24 25 25 25 25 26 26 26 26 26 26 27 28 29 28 27 28 27 29 31 32 33 34 35 37 38 39 39 39 39 40 41 42 44 45 46 47 48 50 50 51 54 56 58 59 60 59 52 59 71 56 46 57 65 64 67 71 70 69 67 64 63 61 58 57 55 54 53 55 55 54 52 51 50 48 46 44 43 42 42 42 41 40 38 38 37 36 36 36 36 34 34 34 33 31
24 25 25 26 26 25 26 27 27 27 27 27 26 28 30 30 30 29 28 28 30 33 33 34 35 36 38 39 40 40 40 40 41 42 43 45 47 48 50 51 52 52 53 56 61 63 64 64 62 58 61 76 70 52 52 64 67 66 68 68 66 66 64 63 62 60 58 56 55 53 53 55 54 53 52 51 50 48 47 44 42 41 41 41 40 39 39 39 38 38 38 37 36 35 35 33 33
26 26 26 27 26 26 27 27 28 28 28 29 27 28 31 32 32 31 29 28 30 33 35 35 36 37 39 40 41 41 42 42 42 43 45 47 48 50 52 54 55 55 56 59 64 68 68 66 63 61 67 78 77 64 54 57 67 67 65 66 67 66 65 64 62 61 59 56 55 53 52 54 55 54 53 52 51 50 48 46 44 42 41 40 40 40 40 40 39 39 39 38 37 36 35 34 34
27 27 27 28 27 27 28 28 29 29 29 30 28 29 31 34 34 32 30 29 31 34 35 36 37 38 39 40 41 41 42 43 44 45 46 48 50 52 54 56 58 58 61 63 67 72 69 64 63 65 75 81 77 69 58 56 60 66 65 65 67 67 66 66 64 62 61 57 55 54 52 53 55 56 55 54 52 51 49 48 46 44 42 41 41 41 41 41 40 40 40 39 37 37 36 36 35
28 28 27 29 28 28 29 29 30 30 30 30 30 29 30 34 35 33 32 30 32 35 36 37 37 39 40 40 41 42 43 43 44 46 47 49 51 54 56 58 61 62 64 68 70 72 66 60 66 73 83 86 76 69 61 59 58 59 65 66 65 67 67 66 65 64 62 59 56 54 53 52 54 55 56 55 53 51 50 48 48 46 44 43 42 42 41 41 41 41 41 39 38 38 37 37 36
29 29 28 29 30 30 30 31 31 31 31 31 32 30 27 32 37 35 34 33 33 35 36 37 37 39 40 41 42 42 43 44 45 46 48 50 52 55 58 60 64 66 68 70 70 66 59 57 72 84 92 89 74 67 61 58 60 59 60 67 67 66 68 68 66 65 63 61 58 55 54 52 52 54 55 56 55 52 50 49 48 47 46 45 43 43 43 42 42 42 42 41 39 39 38 38 38
31 30 29 29 31 31 31 32 32 32 32 31 33 32 24 29 37 37 36 35 34 36 37 37 38 39 40 41 42 42 43 44 45 47 49 51 53 56 59 63 66 68 69 68 65 57 51 57 79 94 100 91 71 64 61 58 61 61 53 61 70 67 67 68 67 66 64 62 60 57 55 53 51 52 54 55 56 54 52 50 48 48 47 46 45 44 44 44 43 43 42 41 41 40 39 38 38
32 32 31 30 32 32 32 33 34 33 33 32 34 33 24 26 36 39 38 36 35 36 37 38 38 39 40 41 42 43 44 45 46 48 50 51 54 57 60 64 67 68 67 62 56 49 45 57 82 100 105 98 76 60 58 59 60 60 53 54 67 70 68 68 67 66 66 63 61 59 56 54 52 51 52 54 55 55 53 51 49 48 48 47 47 46 45 45 44 44 43 42 42 41 40 39 38
33 34 33 32 32 33 33 34 35 34 33 33 34 34 27 25 34 40 39 36 35 37 38 38 39 39 40 41 42 43 43 45 47 48 50 52 54 58 61 65 67 65 62 54 46 42 43 55 80 102 108 103 82 58 53 59 58 57 59 56 58 69 71 69 69 68 67 66 62 59 56 53 53 52 52 52 53 54 53 52 51 49 49 48 48 47 47 46 45 45 44 43 43 41 40 38 37
34 36 35 33 34 34 34 34 36 35 33 34 34 34 29 25 32 39 39 37 35 36 38 38 38 38 39 41 42 43 43 44 47 49 50 52 55 58 62 65 65 61 54 44 37 37 44 53 75 100 106 101 82 59 54 60 59 56 62 62 54 63 72 70 70 70 68 67 63 59 56 53 53 52 52 51 51 52 53 53 52 51 50 49 49 49 48 47 46 45 45 44 43 42 41 39 37
37 37 36 35 35 35 34 36 38 35 34 35 35 35 31 27 32 38 38 37 36 36 37 38 38 38 38 40 42 42 44 44 46 48 50 52 55 58 63 64 61 54 45 35 31 35 44 53 70 92 104 100 80 62 55 56 59 59 63 67 58 56 69 71 69 70 69 68 65 59 56 54 53 52 52 51 51 51 52 52 52 51 50 50 50 49 49 48 46 45 45 44 44 43 42 40 38
38 38 38 37 37 36 35 38 39 36 36 36 36 38 33 29 33 39 37 35 36 36 37 38 38 38 38 39 41 42 43 45 46 48 50 52 55 59 63 62 56 47 37 28 28 36 45 51 64 81 98 99 78 60 51 45 51 61 62 64 60 51 62 73 69 68 70 70 67 61 57 55 53 53 52 52 51 50 51 51 51 50 50 50 49 48 48 47 46 46 46 45 44 43 42 41 39
39 40 40 39 38 36 36 40 40 38 39 37 37 39 34 31 35 40 38 35 35 36 36 37 37 37 38 39 41 42 43 44 46 48 50 51 55 58 62 59 51 41 31 24 26 36 44 51 58 70 88 98 81 59 49 40 37 53 61 59 57 49 53 68 70 69 70 69 67 63 58 56 54 53 53 51 50 50 51 51 50 50 50 49 48 47 47 47 47 46 46 45 44 43 41 40 39
41 41 41 40 39 37 37 41 41 40 42 39 38 41 35 31 36 40 40 36 34 36 36 36 36 37 38 38 40 41 42 43 45 47 49 50 53 57 60 56 46 36 26 20 26 35 45 52 56 63 80 97 87 61 52 42 28 41 59 59 56 50 48 62 69 70 70 66 65 63 59 56 54 54 53 51 51 50 51 50 50 50 49 49 48 47 47 46 46 46 45 45 43 42 41 41 40
42 42 42 42 40 40 40 41 41 42 44 41 40 43 36 31 35 40 41 37 34 36 35 35 36 36 37 38 39 40 41 42 44 46 47 49 52 56 58 52 42 32 23 17 25 35 44 52 55 59 75 93 86 61 48 40 28 36 55 62 59 53 50 59 67 70 69 66 64 62 59 57 54 53 53 51 51 51 51 50 50 50 50 49 48 47 46 46 46 45 44 44 43 43 42 41 40
42 43 44 43 40 42 43 41 42 43 45 44 43 45 39 31 33 38 41 38 34 35 35 34 35 36 37 38 38 39 40 41 43 45 46 47 50 54 56 50 39 29 20 16 23 34 42 49 53 56 72 87 80 60 45 36 32 38 52 60 59 52 50 52 60 67 69 65 62 60 59 58 56 54 53 52 51 50 51 50 50 50 49 49 47 46 45 45 45 45 44 44 43 43 42 41 41
43 44 45 43 41 44 45 43 43 44 45 45 46 48 42 33 31 36 40 39 34 34 35 35 35 35 36 37 37 38 39 40 41 43 44 45 48 51 53 48 36 27 19 16 22 32 40 45 49 51 66 82 77 60 46 37 34 39 47 52 53 49 47 47 52 60 64 63 62 61 60 60 58 56 53 51 50 49 50 50 49 49 48 48 47 45 45 45 46 45 45 44 43 43 43 43 42
44 45 44 43 43 45 45 45 45 45 45 44 46 50 46 35 30 34 40 39 35 34 34 35 34 34 35 36 36 37 37 38 40 41 42 43 45 48 51 47 35 26 18 15 20 30 38 43 45 48 62 80 77 61 49 40 34 35 40 44 47 45 47 54 55 55 61 63 61 60 59 59 59 58 53 49 49 49 50 50 48 46 47 47 46 46 46 47 47 47 46 44 43 44 44 44 44
46 45 44 44 45 45 45 46 46 46 46 45 45 50 50 40 29 31 39 38 35 34 33 34 34 33 34 34 34 35 36 37 38 39 40 41 43 45 48 46 35 26 17 14 19 29 37 41 43 46 59 77 76 64 55 45 35 31 33 38 44 47 51 60 58 53 58 61 59 58 58 59 59 57 53 49 48 49 50 50 49 47 46 46 45 45 47 47 47 47 46 45 44 45 45 45 44
48 45 43 44 45 45 46 46 46 47 47 47 45 46 52 46 31 29 36 37 36 34 32 33 33 32 33 33 33 34 34 35 36 36 38 39 40 41 45 45 36 26 18 14 18 26 38 42 42 46 57 73 76 67 62 53 40 32 28 32 41 47 50 53 52 51 54 54 53 53 53 54 54 54 53 52 51 51 51 50 49 49 48 47 46 44 45 46 46 46 47 46 46 46 46 45 45
48 46 44 44 45 46 47 46 46 47 49 49 43 43 51 49 36 31 34 36 36 33 31 32 32 32 32 32 32 33 33 33 34 34 35 36 38 38 41 42 36 27 19 14 15 23 37 45 45 47 55 67 72 71 68 63 52 39 30 31 37 41 42 43 44 46 50 49 47 47 50 51 50 49 49 50 52 53 53 51 49 50 50 50 51 49 48 47 48 49 49 49 48 47 47 47 47
48 46 44 44 45 46 47 47 47 48 51 49 42 42 50 49 39 33 33 36 36 33 31 32 32 32 31 31 31 31 31 31 32 32 32 33 34 35 37 39 37 28 20 14 13 19 33 46 51 51 54 60 66 69 70 69 64 54 41 34 35 36 37 39 40 41 44 45 45 46 47 48 50 51 46 44 49 54 54 51 49 50 50 52 54 55 55 52 50 51 52 52 51 50 50 50 49
48 46 45 45 46 47 47 48 48 50 52 48 43 44 49 49 40 32 33 36 35 34 33 32 31 31 30 30 30 30 30 30 30 30 30 30 31 32 33 35 36 31 21 15 11 14 26 43 56 58 57 57 60 62 66 68 66 61 53 44 37 34 35 37 39 41 44 45 48 48 46 44 48 52 49 43 46 50 51 49 49 51 52 55 56 56 59 57 54 52 50 50 51 52 52 52 51
48 47 46 46 47 48 49 50 50 51 51 48 47 47 49 48 39 33 34 36 35 34 33 32 31 31 30 29 29 29 28 28 28 28 27 27 27 28 30 31 33 32 25 16 11 10 18 33 52 64 63 60 59 58 60 63 63 62 59 54 48 41 36 35 35 38 42 44 47 50 51 49 46 48 51 50 48 47 48 49 50 51 53 56 59 59 59 59 58 54 49 48 50 52 53 54 54
48 47 46 46 48 49 52 52 50 51 51 49 50 49 49 46 37 33 33 34 36 35 34 32 30 31 30 29 28 28 27 26 26 26 25 25 25 25 26 27 29 31 28 19 12 8 12 21 38 58 66 65 63 61 59 59 61 61 60 58 55 50 45 41 37 36 37 37 38 41 46 47 42 41 44 45 44 45 47 48 49 49 50 52 56 58 58 58 59 57 51 48 50 53 53 54 55
47 47 46 47 49 52 53 52 50 51 51 51 51 51 49 42 34 30 30 33 36 36 34 32 31 31 30 28 28 27 26 25 25 25 24 23 23 22 22 23 24 26 27 23 16 8 9 14 23 39 55 63 67 67 64 61 61 61 61 60 59 57 54 52 49 46 44 42 41 40 40 40 40 40 41 40 39 39 40 42 42 42 44 47 50 54 57 58 60 61 57 52 51 52 54 54 54
49 49 49 51 52 52 52 51 51 52 52 52 51 51 46 39 33 29 29 32 35 37 36 33 32 31 30 29 28 27 26 24 24 24 23 21 21 20 19 19 19 21 23 24 20 13 6 11 16 23 35 49 59 62 63 63 62 63 62 61 60 59 59 59 58 56 55 53 51 49 47 45 45 47 47 47 46 43 42 43 42 38 38 41 44 48 53 57 60 62 62 59 56 53 54 55 54
51 51 53 53 51 50 51 53 54 53 54 52 50 48 42 37 33 31 30 31 33 36 35 32 32 31 30 30 28 27 25 24 23 23 22 21 20 19 18 17 16 16 17 19 20 17 11 5 11 18 24 32 40 45 51 55 58 61 62 63 63 63 63 62 62 61 61 60 59 56 54 53 54 55 55 53 52 52 52 51 49 45 41 40 40 42 46 52 56 60 61 62 62 61 59 59 56
51 51 52 51 49 49 51 54 54 53 54 51 47 45 41 38 35 30 29 30 32 36 34 33 33 30 30 31 28 27 26 24 23 23 22 20 19 18 17 16 15 14 13 14 15 16 15 11 4 9 17 24 27 30 35 42 48 53 57 60 62 65 67 67 66 66 65 65 64 63 62 62 62 63 63 62 61 61 60 58 56 53 50 47 45 43 43 45 48 53 58 60 63 65 66 65 61
53 52 50 49 49 51 52 53 52 52 52 50 47 45 42 40 35 28 27 29 32 35 34 34 33 30 31 32 29 28 26 24 23 23 21 19 18 17 16 15 15 13 12 10 10 11 13 12 10 5 6 14 20 23 26 31 37 43 49 52 55 59 64 67 68 69 69 70 70 70 70 70 70 70 70 70 69 69 69 67 64 60 58 58 57 54 51 49 46 46 51 56 61 64 65 65 64
55 54 51 51 52 52 51 52 52 51 52 52 49 47 45 42 33 25 26 29 31 35 34 34 34 32 31 32 30 29 27 25 24 23 21 19 18 17 16 15 14 13 12 10 8 7 8 9 9 8 6 3 8 13 16 21 26 32 38 41 45 49 54 59 63 65 66 68 70 71 73 74 75 75 75 74 74 74 75 75 73 71 68 69 70 66 62 60 55 49 47 51 57 63 64 63 62
55 54 53 53 53 53 52 52 53 53 54 53 51 50 47 42 34 26 26 28 31 34 32 32 34 33 32 32 31 31 29 26 24 23 21 19 18 17 16 14 13 12 11 11 9 7 5 5 5 6 6 5 4 5 7 9 13 18 23 27 30 34 38 43 49 54 57 60 62 65 68 71 74 76 77 77 76 76 78 79 80 79 79 80 80 76 71 68 65 61 56 52 53 58 63 64 63
54 55 55 55 54 54 54 54 55 55 54 52 53 54 49 45 40 30 25 27 31 33 32 33 35 34 32 32 33 33 31 27 25 24 22 20 20 19 17 15 14 13 11 10 10 9 7 5 4 4 4 4 4 5 5 6 7 8 10 13 15 18 21 25 31 37 42 46 50 54 58 63 67 70 73 75 76 76 77 79 81 82 84 85 86 84 80 77 74 72 68 63 58 57 59 64 67
56 56 57 56 56 57 58 59 58 54 52 51 55 57 51 47 46 35 26 28 30 31 32 33 36 36 34 34 35 35 33 30 27 25 23 22 21 20 19 17 15 14 13 11 10 10 10 8 7 6 6 6 5 5 5 6 8 9 10 10 11 13 14 16 19 23 27 32 36 40 45 48 52 57 61 65 68 71 73 76 79 82 83 86 89 89 88 85 82 81 79 74 70 65 61 62 66
Wind_Direction
251 253 254 257 259 261 262 263 264 265 265 263 262 259 254 253 251 250 251 253 252 252 252 252 251 249 250 251 252 253 255 258 262 267 269 266 262 262 260 257 255 254 256 258 256 255 258 262 265 263 262 260 256 251 247 242 233 227 222 219 222 226 230 233 234 234 234 235 235 232 229 226 225 225 226 224 219 215 213 210 208 208 207 205 204 203 202 203 204 204 204 210 220 229 239 251 268
253 255 257 259 260 261 262 263 264 265 265 262 257 254 252 252 249 248 249 251 252 253 255 257 257 256 255 256 255 255 256 258 261 264 267 269 268 265 262 261 260 259 258 258 256 252 249 251 255 258 259 258 257 253 248 245 239 232 227 223 221 223 227 232 234 236 237 238 239 239 234 229 225 224 224 223 220 216 215 214 214 213 211 210 209 208 207 208 209 211 214 220 229 237 247 255 268
256 258 260 261 262 263 263 265 266 266 266 262 253 251 251 251 248 247 246 249 254 256 257 259 260 260 260 261 261 262 262 261 262 263 265 268 270 269 269 267 263 262 261 260 259 256 251 248 247 250 254 255 255 253 250 246 243 237 232 227 224 223 226 230 233 236 238 239 240 241 238 233 228 225 223 222 220 218 217 218 218 218 217 215 214 213 212 213 216 218 221 227 234 241 248 257 269
257 259 260 261 262 263 263 265 267 266 266 261 253 252 253 251 250 251 253 255 258 260 261 263 264 265 265 265 265 266 267 267 266 266 267 267 269 270 272 272 269 266 263 263 263 261 258 253 249 248 249 251 252 251 250 248 245 241 236 231 227 225 225 228 231 235 237 239 239 240 239 236 231 227 223 222 221 220 219 219 221 222 222 221 219 218 218 219 222 225 228 232 237 243 250 258 268
257 258 259 260 261 262 264 265 266 266 264 259 253 252 254 254 256 259 262 262 259 261 266 268 269 272 272 270 271 270 271 272 272 270 270 271 271 271 271 272 273 272 268 265 265 264 262 258 254 252 249 249 250 249 248 247 246 243 239 235 231 227 226 226 229 232 236 238 239 239 238 237 234 230 225 223 222 221 221 221 222 224 225 226 225 223 223 224 226 231 234 237 242 246 253 260 267
256 258 259 261 262 264 265 265 264 260 256 254 251 249 253 256 257 256 254 253 253 257 261 263 265 267 268 272 274 274 277 278 277 278 280 279 277 276 275 273 273 274 273 270 268 266 264 262 258 256 254 251 250 249 248 246 245 244 242 238 234 230 228 227 227 229 233 236 238 239 238 237 236 233 229 226 223 223 224 224 223 225 226 228 229 229 228 228 230 234 238 241 246 250 255 261 267
257 259 260 261 262 263 261 256 249 244 244 246 238 235 240 237 232 231 238 242 243 246 248 249 251 251 253 259 261 264 269 272 277 282 285 286 284 282 280 277 274 274 273 272 270 268 266 264 262 259 256 254 253 251 250 248 245 243 243 241 237 233 230 229 227 227 230 233 236 238 238 237 237 235 233 229 225 224 225 226 226 226 227 229 231 232 233 233 234 237 241 245 248 253 257 262 268
256 255 254 253 249 244 234 223 220 219 226 227 213 217 222 225 231 237 248 253 252 254 258 259 260 257 259 260 260 263 263 267 272 273 277 280 281 282 281 279 277 274 273 272 271 269 267 265 264 262 258 254 255 254 252 251 249 245 243 242 240 236 232 230 229 227 228 230 233 236 237 237 237 236 234 232 228 225 226 227 227 227 228 229 231 234 236 237 238 240 243 247 251 255 259 264 269
236 231 226 220 210 211 208 206 210 211 219 223 221 227 231 235 241 247 253 263 268 270 272 272 269 266 269 268 268 273 273 275 276 276 276 276 278 280 281 280 279 276 272 271 271 270 269 267 265 263 261 256 253 255 255 252 251 249 245 242 241 239 235 232 230 229 227 228 230 233 235 236 237 237 235 234 231 226 226 228 228 229 229 230 232 234 237 239 241 243 245 249 253 256 260 263 268
196 195 198 201 201 209 214 217 223 229 235 239 241 243 245 248 250 255 259 264 272 277 279 278 275 276 277 277 276 278 280 280 280 281 281 280 281 281 280 280 279 277 275 272 270 270 269 268 266 264 263 260 255 253 254 254 252 251 249 245 242 240 238 234 232 230 229 227 228 230 232 234 235 236 236 235 234 229 227 228 229 229 230 231 232 234 237 240 242 245 247 250 253 257 260 263 267
195 198 204 210 213 219 226 233 239 244 249 251 254 256 259 262 262 266 269 269 272 274 278 280 281 283 283 283 283 284 283 282 281 283 283 283 284 284 282 279 278 277 275 273 271 269 268 267 266 264 263 262 258 253 252 253 253 252 251 248 245 241 239 237 234 232 230 228 228 228 229 231 232 233 235 235 234 232 229 229 230 230 231 232 233 235 237 240 243 246 248 251 254 257 260 263 266
207 209 217 222 225 230 235 242 248 252 256 258 260 262 265 269 270 271 271 271 272 272 274 278 281 283 283 284 284 285 284 284 284 284 284 284 285 285 284 283 282 279 276 276 275 272 269 267 265 263 261 260 260 256 252 251 252 251 251 250 248 244 241 238 236 233 232 230 229 228 228 229 231 231 233 235 235 233 232 231 231 232 232 233 234 235 238 240 242 245 248 251 254 257 259 261 264
216 218 226 231 233 236 241 245 250 253 256 260 262 263 265 267 268 269 270 271 272 273 274 276 278 279 282 284 284 283 283 284 285 285 285 285 286 286 286 287 286 286 284 282 281 276 273 270 266 263 260 258 258 257 254 250 249 250 250 249 249 248 244 241 238 235 233 231 230 230 229 228 229 230 231 233 234 234 233 232 233 233 233 234 235 237 239 241 243 245 248 250 253 256 259 261 263
223 224 230 234 236 240 245 250 254 257 260 264 266 267 268 268 269 271 273 275 276 277 278 278 280 280 281 283 284 284 284 284 284 285 285 285 287 287 288 288 288 291 290 290 287 280 274 272 268 264 260 257 255 254 254 252 248 248 249 249 248 249 247 244 240 237 235 233 232 231 230 229 229 229 231 232 233 234 234 234 234 235 235 236 237 238 239 241 244 246 248 250 253 255 258 260 261
227 230 233 237 240 245 250 255 258 261 262 264 267 270 273 274 276 278 279 281 281 282 282 283 283 284 284 283 283 284 285 285 285 286 286 286 286 287 289 288 289 290 291 293 289 282 277 271 268 264 259 257 255 252 251 251 249 247 247 247 247 247 248 246 243 239 236 234 233 232 231 230 229 228 229 231 233 234 235 235 235 236 236 237 238 239 241 242 244 246 248 250 252 254 257 259 260
230 232 235 240 244 247 251 255 257 258 259 261 265 269 272 277 280 282 283 283 283 284 284 285 286 287 286 286 285 286 286 286 287 287 287 287 287 287 288 289 290 289 291 292 287 285 282 272 268 264 259 255 253 252 250 248 248 246 245 246 245 245 246 246 244 242 238 236 234 233 233 232 231 230 229 231 232 233 234 235 236 237 237 238 239 240 241 243 245 246 248 249 251 253 256 258 259
234 236 238 242 246 249 252 254 256 258 260 262 266 271 275 279 282 283 285 284 284 285 286 287 288 288 288 288 288 287 287 287 287 288 288 288 288 287 287 288 290 289 290 290 288 287 279 271 268 264 259 256 252 250 248 246 245 244 243 244 244 243 244 245 244 243 240 238 236 235 234 233 233 232 231 231 231 232 233 235 236 237 238 238 240 241 242 243 244 246 247 249 250 252 254 256 255
239 242 243 245 249 251 254 255 257 260 262 264 269 274 279 283 284 285 286 285 285 287 288 289 290 290 291 291 290 289 288 288 288 288 288 288 287 286 286 287 289 289 289 289 291 285 272 268 267 266 262 256 252 250 248 246 244 242 241 241 242 242 241 242 243 243 241 239 238 237 236 235 234 233 233 232 232 232 233 234 235 236 238 239 240 242 243 244 245 246 247 248 249 251 252 252 250
242 244 245 247 249 251 253 257 259 261 265 269 273 277 281 283 285 286 287 288 288 289 290 291 291 292 293 293 293 292 290 289 289 288 288 288 287 287 287 287 287 288 289 289 290 286 278 270 259 260 260 253 250 248 247 247 245 242 240 238 239 241 240 240 241 241 241 240 238 238 237 237 235 234 234 234 233 232 233 234 235 236 237 239 240 242 243 244 245 246 247 247 248 249 249 247 245
243 245 246 248 250 252 254 257 261 264 268 273 277 280 281 283 285 287 289 290 291 291 291 292 293 294 295 294 294 293 292 291 289 288 287 287 287 288 288 288 288 287 288 288 289 288 286 278 252 243 247 245 244 243 244 246 246 244 240 238 237 238 240 240 240 240 240 240 239 237 237 238 236 235 235 234 235 234 234 234 235 236 236 238 239 241 243 244 245 246 246 246 245 245 244 243 241
247 248 249 251 252 254 255 260 263 267 272 276 278 280 282 285 287 288 290 290 291 291 291 292 294 295 295 294 294 294 294 292 290 289 288 288 288 289 289 289 289 287 287 287 289 287 285 283 263 243 240 238 237 237 240 243 245 244 242 239 237 237 238 239 240 240 240 239 238 237 236 237 236 236 236 235 235 235 235 235 236 236 235 236 237 238 241 242 243 243 243 243 243 242 241 241 240
250 251 253 255 256 258 259 263 265 269 272 275 277 280 284 287 288 291 292 291 291 291 292 293 294 295 295 294 294 293 293 292 291 290 289 290 289 290 291 290 290 288 287 286 287 286 284 281 268 252 243 241 240 234 235 239 241 242 241 239 237 236 236 237 239 239 240 239 238 237 235 235 236 236 236 235 235 234 235 235 236 236 235 235 236 236 237 238 239 240 241 240 241 242 242 241 239
252 255 257 258 260 261 263 266 268 271 274 276 278 281 284 286 289 292 293 292 292 293 294 295 296 296 297 296 295 294 293 292 291 291 291 291 292 292 292 292 291 289 288 287 286 284 284 279 269 255 241 239 243 232 228 233 235 237 239 238 236 235 236 236 237 238 239 240 238 237 235 234 234 235 235 235 235 234 234 234 234 236 236 236 236 235 235 235 236 238 239 240 241 242 243 242 240
256 257 259 260 262 264 266 268 271 274 276 278 280 282 285 287 290 292 293 294 295 296 297 298 298 298 299 299 299 297 296 295 294 293 294 294 295 295 295 293 292 290 290 288 287 283 282 278 269 258 237 230 234 229 226 228 230 234 235 235 236 234 234 234 235 236 238 239 239 237 235 234 234 233 234 234 234 234 233 233 233 234 235 236 236 236 235 236 236 236 238 239 241 242 243 243 241
259 260 261 262 263 266 269 271 273 276 278 280 282 284 286 288 291 290 293 297 299 299 299 299 299 300 301 302 301 300 300 299 298 297 297 298 298 299 297 296 293 292 291 289 288 284 281 278 266 255 235 223 222 223 225 226 226 230 232 233 234 233 233 233 233 234 236 237 238 238 235 234 234 233 233 233 233 233 233 232 232 233 234 235 236 236 237 237 238 238 239 239 239 240 242 243 242
260 261 263 263 265 267 270 272 274 277 280 281 283 285 286 287 288 289 294 300 301 299 299 299 300 302 302 303 303 302 302 301 301 301 301 302 302 302 301 299 297 295 294 290 289 286 282 277 264 250 231 219 220 215 214 222 224 225 229 230 231 232 232 232 232 232 234 236 237 238 236 234 234 233 233 233 233 232 233 233 232 232 233 234 235 236 237 238 239 239 239 239 239 239 240 241 242
262 262 264 264 267 269 270 273 275 276 278 280 282 284 285 287 287 291 297 301 300 298 299 300 302 303 304 305 305 304 304 304 304 304 304 305 306 306 305 303 301 298 296 293 290 288 282 273 260 242 223 217 219 212 200 209 221 224 226 228 229 230 231 231 231 231 232 233 235 237 236 235 233 233 234 233 232 232 232 233 232 232 232 233 234 234 235 237 238 239 239 238 239 239 239 241 243
262 264 265 267 268 270 271 273 274 276 277 280 282 283 286 287 288 293 298 300 299 298 299 301 303 304 305 306 306 306 306 306 306 306 307 308 309 309 309 307 304 302 300 296 292 288 280 266 249 231 216 211 212 210 197 191 209 224 226 226 227 229 230 230 231 231 231 231 232 234 235 234 233 233 234 234 233 232 232 232 233 233 232 233 233 234 234 235 236 237 238 238 239 240 241 243 245
262 263 266 268 268 269 272 273 275 277 278 281 282 283 287 289 290 293 297 299 299 299 299 302 303 304 305 306 307 307 307 307 307 307 309 310 312 312 311 309 307 305 302 298 294 287 275 255 235 221 209 205 206 211 202 184 190 214 226 228 226 228 230 230 230 231 231 230 230 232 233 233 233 233 233 234 234 234 232 231 232 232 232 233 233 234 234 235 236 237 238 238 239 241 242 244 246
262 263 265 267 269 270 272 274 275 277 278 280 281 283 289 292 292 294 297 299 299 298 299 301 302 303 305 307 308 308 307 308 308 309 312 313 315 314 312 312 309 308 306 301 295 283 268 243 224 213 205 201 204 206 196 185 187 198 217 229 228 226 228 229 230 230 230 230 229 230 231 231 232 233 233 234 235 234 233 232 232 232 232 233 233 234 235 235 236 237 238 239 240 241 243 244 246
262 263 264 266 268 270 272 274 276 278 279 281 282 284 290 293 293 295 296 298 299 298 299 300 302 304 306 308 309 309 310 310 311 312 314 316 317 316 315 314 312 311 308 302 293 278 260 235 216 209 205 199 197 198 189 184 191 193 201 224 228 225 227 229 228 228 229 229 228 228 229 230 230 231 233 233 234 234 234 233 232 232 232 233 233 234 235 236 237 238 239 240 241 242 243 245 246
263 264 264 265 267 270 272 275 277 279 282 284 283 286 291 292 292 294 295 297 299 298 299 300 302 304 306 309 310 311 312 312 313 314 315 318 318 318 317 316 315 313 309 301 289 272 251 228 213 207 206 202 195 194 190 183 190 194 192 208 224 225 225 227 227 227 228 228 227 228 227 228 229 230 231 232 234 234 234 233 232 231 231 231 233 234 235 236 237 238 239 240 242 242 243 244 245
263 264 264 265 267 269 272 274 277 279 283 284 284 286 291 292 291 292 294 296 298 297 298 301 303 305 307 309 311 312 314 313 314 315 316 319 320 320 320 319 318 315 309 299 285 266 244 226 213 206 207 206 198 192 195 188 186 193 192 196 214 222 222 224 228 227 227 227 226 227 226 226 227 229 231 232 233 233 233 233 232 231 231 231 232 233 234 235 237 238 239 240 241 242 243 244 244
262 263 265 267 268 269 272 274 276 278 281 283 284 286 290 292 290 290 293 296 298 297 298 301 303 304 307 309 312 312 314 314 315 316 318 321 323 323 323 323 321 316 309 297 279 259 240 225 212 206 208 208 198 192 197 187 182 188 191 192 201 216 219 220 226 228 227 227 225 226 226 226 227 228 230 231 232 233 232 233 233 232 231 231 232 233 234 235 236 238 239 240 242 242 242 242 242
261 263 266 267 269 270 273 274 275 278 280 282 284 286 289 292 290 289 293 296 298 298 298 300 302 303 307 310 312 313 314 315 317 318 320 324 325 326 326 326 323 317 310 294 270 248 234 221 209 205 208 207 194 190 193 182 183 188 187 190 192 205 217 218 222 226 228 227 225 225 226 226 226 227 229 231 231 232 233 233 233 233 232 232 232 232 233 234 236 237 239 241 242 242 242 241 240
263 265 266 267 268 271 274 274 275 278 279 281 283 285 288 294 292 290 293 297 298 298 298 299 301 303 308 311 313 314 315 317 319 320 322 326 328 329 330 328 325 319 309 288 258 240 229 216 209 209 210 205 191 185 189 181 186 189 186 191 191 196 213 216 217 222 226 226 225 224 225 226 226 227 228 229 231 231 232 232 233 233 233 233 232 231 232 233 234 235 237 239 240 241 241 241 241
265 265 267 268 269 271 273 274 276 279 279 280 283 284 289 295 293 291 293 296 297 296 297 299 301 304 308 312 313 315 317 319 321 322 324 328 330 332 333 331 328 321 309 281 249 234 224 213 212 216 214 205 191 184 188 182 183 189 187 191 192 191 208 216 215 218 223 224 224 223 224 226 226 227 228 229 230 231 231 232 232 233 233 232 231 230 231 231 232 234 235 237 238 239 240 241 241
265 266 267 268 270 271 271 273 277 278 278 280 282 283 289 294 293 293 294 296 297 296 297 298 301 305 308 311 314 315 318 320 322 323 325 329 332 335 336 335 331 323 309 276 242 229 220 214 217 221 218 208 198 191 187 183 183 188 186 188 191 190 202 215 215 216 220 221 222 222 222 225 226 227 229 229 230 230 231 232 232 233 233 232 231 230 231 231 232 234 235 237 238 239 239 240 239
265 267 267 268 270 271 270 273 276 277 278 280 282 283 287 292 293 294 294 296 297 296 296 298 302 305 308 311 313 316 319 321 323 324 326 331 334 338 340 338 334 326 310 272 238 226 219 217 221 223 220 212 204 194 185 187 192 183 182 186 190 192 198 211 215 215 219 220 220 221 222 224 226 228 230 230 230 230 231 231 231 232 234 234 233 232 232 232 233 234 235 237 237 238 238 238 239
265 266 267 268 269 270 270 272 274 276 278 280 281 282 285 289 292 293 292 293 295 295 296 299 301 304 306 310 313 317 319 321 324 325 327 332 336 340 344 342 338 329 308 268 237 226 220 220 224 225 222 214 204 192 182 186 193 179 177 183 187 190 193 204 214 212 213 217 219 221 223 224 226 228 229 230 230 231 232 231 231 232 234 235 234 234 233 233 233 234 235 236 238 239 238 238 238
265 265 266 268 268 269 270 271 273 275 277 280 282 281 282 286 290 292 290 291 293 294 296 297 299 301 304 308 313 317 319 321 324 326 328 333 338 343 347 346 342 333 310 270 239 227 223 222 225 228 223 213 203 193 182 180 185 175 174 181 185 187 186 194 209 210 208 214 219 222 224 224 226 228 229 231 232 232 234 233 232 233 234 235 235 235 235 234 234 234 234 235 237 239 239 238 238
264 265 266 267 267 268 270 271 273 274 276 279 281 282 283 284 289 291 289 290 291 291 294 294 295 299 303 307 312 316 318 321 324 327 330 334 339 345 350 350 346 337 317 276 244 227 224 224 226 229 223 213 205 196 183 176 176 171 170 177 182 183 182 188 201 205 205 212 218 222 224 225 227 228 228 231 233 233 234 234 233 233 234 236 237 235 235 235 235 235 235 235 236 238 240 240 239
263 263 264 265 267 268 270 271 272 274 275 277 278 282 284 283 287 290 288 288 288 289 292 292 293 297 301 306 311 315 318 321 324 328 331 334 339 347 353 353 350 342 326 284 250 229 224 225 226 229 223 216 210 199 188 180 173 169 167 171 178 180 181 190 198 200 201 208 214 219 223 225 226 228 227 229 232 233 234 234 233 233 234 238 239 239 238 237 236 237 236 236 235 236 239 240 241
262 263 263 265 266 267 268 270 272 273 274 275 277 282 284 284 287 288 286 287 287 288 290 290 292 296 300 304 309 313 317 320 324 328 331 334 339 347 355 357 354 347 333 295 259 233 224 224 226 228 224 219 214 204 195 189 180 173 168 166 176 183 185 190 196 198 198 203 208 214 220 224 226 229 229 230 231 234 235 236 235 234 235 236 239 241 242 240 239 239 239 238 238 238 239 240 241
263 264 264 265 266 267 268 270 271 272 272 274 277 281 283 284 287 289 286 285 284 286 288 288 291 294 298 302 306 311 316 318 323 328 331 334 338 346 356 1 359 351 340 310 270 238 225 224 225 226 225 223 219 210 204 201 196 190 181 166 170 182 186 188 192 194 193 193 198 207 217 222 225 228 230 232 233 235 238 239 237 235 233 233 234 235 239 241 242 241 240 239 239 239 239 239 240
263 264 264 265 265 266 268 269 270 271 271 274 278 280 281 282 284 288 287 282 282 285 286 286 288 291 295 299 304 309 313 317 322 327 331 333 338 344 355 3 4 357 346 324 285 246 229 225 223 222 225 226 225 221 217 215 213 210 201 182 172 176 182 186 191 195 196 194 194 200 208 215 220 223 227 235 236 234 235 237 238 237 234 233 233 233 235 238 241 242 241 239 239 239 239 239 239
262 263 263 264 265 266 267 268 269 270 271 275 277 278 280 280 282 288 285 279 281 283 283 284 285 287 291 295 301 306 311 315 320 324 329 333 337 343 352 3 8 4 355 338 305 259 236 226 221 220 225 229 231 231 228 227 227 224 219 211 201 191 185 184 188 194 200 201 200 200 202 207 212 213 214 223 231 229 227 226 229 233 232 232 232 231 232 233 234 238 239 239 239 239 240 240 239
259 261 262 263 265 266 266 267 267 269 272 275 276 276 277 277 282 289 283 279 280 280 280 281 282 284 287 292 296 302 308 312 316 321 327 332 336 341 349 0 9 11 6 352 326 277 245 230 222 221 226 230 234 236 235 235 237 236 235 232 228 220 206 194 191 194 197 197 196 197 198 202 207 209 208 212 219 224 226 224 222 225 228 230 232 231 230 230 230 232 235 239 240 240 240 241 240
260 261 262 263 264 264 264 265 267 269 273 274 275 276 275 276 283 287 283 280 278 278 279 279 279 281 283 288 293 298 304 308 313 317 323 329 334 339 347 356 5 13 14 8 349 301 258 239 227 225 229 232 234 236 238 240 241 243 245 247 245 241 233 223 217 215 213 209 206 203 201 203 208 211 212 214 215 219 226 227 225 224 227 231 235 236 236 234 233 233 232 236 241 241 240 240 240
259 259 259 258 259 261 263 266 268 270 271 272 273 274 274 277 283 283 279 277 277 277 278 277 277 278 279 284 289 293 299 305 309 313 319 326 332 336 343 352 1 10 17 18 11 340 276 254 237 230 231 233 234 237 240 243 245 247 250 253 254 252 249 245 241 239 238 239 240 238 231 223 220 220 224 228 228 224 225 227 228 228 228 230 233 236 239 239 239 238 235 233 237 240 240 241 241
253 253 254 255 257 261 265 268 269 269 270 270 271 272 274 279 282 279 276 275 276 276 276 276 275 275 278 281 284 289 294 301 305 308 315 322 328 333 337 346 356 5 13 20 23 17 326 268 253 242 235 235 237 240 243 246 248 249 251 253 255 257 256 255 254 252 251 253 256 256 252 244 238 238 240 242 241 239 239 238 236 233 230 231 232 235 238 239 240 242 240 234 234 238 241 242 242
252 252 254 257 259 262 265 266 267 268 269 268 269 271 275 278 278 278 279 277 275 274 274 273 272 273 276 277 281 286 289 297 301 303 309 318 323 329 333 337 347 358 8 16 23 27 24 328 269 257 249 244 243 244 246 248 248 249 250 251 252 255 258 259 259 259 258 259 261 262 260 256 254 255 255 253 251 252 253 250 245 241 236 235 237 237 237 237 239 243 244 239 236 238 241 243 244
252 253 255 258 259 259 261 263 264 266 267 267 268 271 273 274 274 278 281 278 273 271 270 270 269 270 273 275 278 282 285 292 296 297 302 310 317 322 327 331 335 346 358 9 18 25 31 32 354 274 262 258 254 249 247 248 249 249 249 250 251 253 256 259 261 261 261 262 263 265 265 264 264 265 266 265 263 263 263 260 256 250 243 242 244 244 243 242 241 242 244 243 240 241 243 244 245
252 253 254 255 255 256 258 260 262 264 267 267 268 269 271 271 273 280 279 273 270 269 269 269 269 269 270 272 276 278 281 286 289 291 294 301 309 314 319 324 327 332 340 353 7 17 24 32 37 23 286 270 266 260 253 250 249 250 250 251 251 252 254 258 260 261 262 262 264 265 267 267 267 267 268 269 268 268 268 267 266 261 252 249 251 251 249 248 247 244 242 242 243 244 245 246 246
252 253 253 252 253 255 256 259 262 264 266 267 267 268 268 269 273 278 271 266 267 268 270 271 269 268 268 270 273 273 275 280 282 283 287 292 299 304 309 314 318 322 323 329 340 358 13 20 27 33 30 339 287 274 265 256 252 252 253 253 253 253 254 256 259 260 261 261 262 263 264 265 266 266 266 267 267 268 269 269 269 268 263 259 259 259 255 252 251 249 247 245 244 244 245 246 246
252 253 253 253 254 255 256 258 260 261 263 266 267 267 266 267 270 270 266 265 267 269 271 272 269 267 267 267 270 270 270 273 276 276 280 286 290 294 299 303 307 311 311 311 313 319 336 353 3 10 15 18 358 324 299 276 261 256 256 257 256 255 254 254 256 258 260 261 261 261 261 262 263 265 266 266 266 266 267 268 268 268 268 267 266 265 261 257 254 253 252 252 251 248 246 244 244
251 251 251 252 253 255 255 256 256 258 260 264 267 266 266 266 266 263 262 262 264 270 274 273 270 267 264 264 265 266 268 269 270 270 273 278 282 286 290 294 297 300 299 299 298 297 297 300 307 317 323 331 340 335 327 317 304 287 274 269 267 265 262 259 257 258 260 261 262 262 262 261 262 263 265 266 266 266 265 266 266 266 266 267 267 267 265 262 258 257 256 255 254 254 251 246 244
247 248 249 250 250 251 252 252 254 257 260 264 266 266 264 264 264 262 260 261 265 270 272 271 270 267 263 261 261 263 266 267 265 264 267 271 275 280 284 287 289 292 294 292 287 285 283 279 276 276 280 285 288 288 292 297 299 299 296 292 288 285 282 277 272 268 266 267 268 269 268 267 267 266 267 268 268 268 266 265 264 263 263 263 264 265 265 264 261 260 260 258 256 256 255 252 247